Weather observations for the past three days for
Baudette International Airport
Imperial (Metric)
Date Time (cdt) Wind (mph) Vis. (mi.) Weather Sky Cond. Temperature (ºF) Relative Humidity Wind Chill (°F) Heat Index (°F) Pressure Precipitation (in)
Air Dwpt 6 hour altimeter (in) sea level (mb) 1 hr 3 hr 6 hr
Max. Min.
23 09:53 E 9 10.00 Overcast BKN010 OVC060 64.9 61 87% 30.1 1019.4 0.01 0.03
23 08:53 E 8 10.00 Light Rain SCT006 OVC047 63 59 87% 30.1 1019.2 0.02
23 07:53 E 10 10.00 Overcast OVC011 64 59 84% 30.09 1019.0
23 06:53 E 8 10.00 Overcast OVC009 64 60.1 66 64 87% 30.07 1018.3
23 05:53 NE 7 10.00 Overcast OVC009 64.9 62.1 90% 30.06 1017.6
23 04:53 E 5 10.00 Overcast OVC010 64.9 62.1 90% 30.05 1017.3
23 03:53 E 7 10.00 Overcast BKN008 OVC055 66 62.1 87% 30.04 1017.0
23 02:53 E 3 10.00 Overcast BKN009 BKN037 OVC045 64.9 62.1 90% 30.05 1017.3
23 01:53 NE 3 10.00 Overcast OVC043 64.9 62.1 90% 30.04 1017.1
23 00:53 E 3 10.00 Mostly Cloudy FEW043 FEW050 BKN090 64.9 62.1 73 64 90% 30.03 1016.9 0.08
22 23:53 E 7 10.00 Mostly Cloudy FEW034 SCT045 BKN120 64.9 62.1 90% 30.02 1016.5
22 22:53 Calm 10.00 Overcast SCT035 BKN050 OVC100 64.9 61 87% 30.04 1017.0
22 21:53 E 8 10.00 Thunderstorm in Vicinity OVC035 66 60.1 81% 30.03 1016.7 0.06 0.08
22 20:53 N 8 7.00 Light Rain SCT033 BKN070 OVC100 71.1 64.9 81% 30.01 1016.1 0.01
22 19:53 N 3 7.00 Partly Cloudy FEW043 SCT110 72 66.9 84% 30 1015.7 0.01
22 18:53 NW 7 8.00 Light Rain FEW043 SCT080 OVC110 73 66.9 79 73 81% 29.99 1015.5
22 17:53 N 8 9.00 Mostly Cloudy SCT046 SCT055 BKN070 77 66.9 71% 79 30 1015.7
22 16:53 N 7 9.00 Partly Cloudy SCT025 SCT031 78.1 66 67% 80 30 1015.5
22 15:53 N 6 9.00 A Few Clouds FEW041 78.1 66 67% 80 30 1015.7
22 14:53 NW 3 9.00 Mostly Cloudy FEW028 BKN035 BKN044 77 66 69% 79 30.01 1016.2
22 13:53 NW 6 9.00 Overcast BKN026 OVC034 75.9 64.9 69% 78 30.02 1016.4
22 12:53 N 5 9.00 A Few Clouds FEW022 75.9 64.9 75.9 64.9 69% 78 30.02 1016.7
22 11:53 Calm 10.00 Mostly Cloudy SCT015 BKN025 73.9 64.9 74% 30.04 1017.0
22 10:53 Calm 9.00 Overcast OVC022 72 64.9 79% 30.04 1017.1
22 09:53 NW 8 10.00 Partly Cloudy SCT008 SCT015 71.1 64.9 81% 30.02 1016.7
22 08:53 Calm 9.00 Mostly Cloudy SCT004 BKN041 BKN048 68 64 87% 30.02 1016.6
22 07:53 Calm 8.00 Overcast BKN005 BKN035 OVC080 66 62.1 87% 30.03 1016.6
22 06:53 S 5 9.00 Overcast OVC100 64.9 62.1 66.9 59 90% 30.01 1016.2 0.23
22 05:53 E 9 8.00 Light Rain FEW075 OVC100 64.9 62.1 90% 30 1015.8 0.15
22 04:53 N 3 3.00 Thunderstorm in Vicinity Rain Fog/Mist FEW040 BKN055 OVC070 66 63 90% 30.06 1017.6 0.08
22 03:53 N 9 10.00 Overcast OVC046 66 57 73% 30.04 1017.2
22 02:53 S 3 10.00 Mostly Cloudy BKN070 BKN080 62.1 57 84% 30.05 1017.3
22 01:53 Calm 10.00 Partly Cloudy SCT120 63 57.9 84% 30.06 1017.7
22 00:53 SW 3 10.00 Fair CLR 60.1 57 78.1 60.1 90% 30.06 1017.8
21 23:53 Calm 10.00 Fair CLR 62.1 57.9 86% 30.07 1018.2
21 22:53 Calm 10.00 Fair CLR 63 59 87% 30.08 1018.7
21 21:53 Calm 10.00 Fair CLR 64.9 61 87% 30.09 1019.1
21 20:53 S 3 10.00 Fair CLR 69.1 62.1 78% 30.08 1018.5
21 19:53 Calm 10.00 Fair CLR 75 63 66% 77 30.09 1018.7
21 18:53 NW 3 10.00 Fair CLR 77 60.1 82 73.9 56% 79 30.11 1019.4
21 17:53 NW 8 10.00 Fair CLR 80.1 63 56% 81 30.12 1020.0
21 16:53 NW 6 10.00 Fair CLR 82 66 58% 84 30.12 1019.6
21 15:53 Calm 10.00 Fair CLR 80.1 64.9 60% 82 30.13 1020.2
21 14:53 Vrbl 5 10.00 Fair CLR 79 64 60% 81 30.15 1020.9
21 13:53 SE 6 10.00 Fair CLR 78.1 66 67% 80 30.17 1021.5
21 12:53 Vrbl 3 10.00 Fair CLR 73.9 64.9 75 63 74% 30.18 1021.7
21 11:53 SE 7 10.00 Overcast OVC006 72 64.9 79% 30.18 1022.1
21 10:53 E 7 10.00 Partly Cloudy SCT008 73 66 79% 30.18 1021.9
21 09:53 NE 3 5.00 Overcast with Haze OVC002 69.1 64 84% 30.18 1021.8
21 08:53 E 5 10.00 Fair CLR 68 62.1 81% 30.18 1021.7
21 07:53 E 5 10.00 A Few Clouds FEW007 64.9 59 81% 30.18 1021.8
21 06:53 E 5 10.00 Fair CLR 63 57.9 64.9 60.1 84% 30.17 1021.5
21 05:53 Calm 10.00 Fair CLR 61 57 87% 30.16 1021.4
21 04:53 Calm 10.00 Fair CLR 61 57.9 90% 30.16 1021.3
21 03:53 NE 3 10.00 Fair CLR 62.1 59 90% 30.15 1020.9
21 02:53 NE 3 8.00 Fair CLR 63 61 93% 30.15 1020.8
21 01:53 Calm 0.25 Fog VV002 63 61 93% 30.15 1020.8
21 00:53 Calm 5.00 Fog/Mist CLR 63 61 73.9 63 93% 30.15 1020.8
20 23:53 Calm 8.00 Fair CLR 66 64 93% 30.14 1020.5
20 22:53 Calm 2.00 Fog/Mist CLR 66 64 93% 30.15 1020.8
20 21:53 Calm 8.00 Fair CLR 68 66 93% 30.15 1020.7
20 20:53 Calm 10.00 Fair CLR 70 64.9 84% 30.13 1020.1
20 19:53 NW 3 10.00 Fair CLR 73 66 79% 30.1 1019.3
20 18:53 Calm 10.00 Fair CLR 73.9 64.9 87.1 73 74% 30.11 1019.5 0.01
20 17:53 S 8 G 16 10.00 Fair CLR 73.9 64 71% 30.12 1020.0
20 16:53 SW 3 10.00 Mostly Cloudy FEW050 SCT090 BKN120 73 61 66% 30.11 1019.5 0.01
20 15:53 E 12 10.00 Thunderstorm in Vicinity FEW065 75 64.9 71% 77 30.11 1019.6
20 14:53 NW 6 10.00 Fair CLR 86 66 51% 88 30.09 1018.5
20 13:53 N 6 10.00 Fair CLR 86 66.9 53% 89 30.1 1018.9
20 12:53 N 5 10.00 Fair CLR 84.9 70 84.9 63 61% 89 30.1 1019.0
20 11:53 Calm 10.00 Fair CLR 82.9 69.1 63% 87 30.1 1019.0
20 10:53 Calm 10.00 Fair CLR 81 69.1 67% 84 30.1 1018.9
Date Time (cdt) Wind (mph) Vis. (mi.) Weather Sky Cond. Air Dwpt Max. Min. Relative Humidity Wind Chill (°F) Heat Index (°F) altimeter (in) sea level (mb) 1 hr 3 hr 6 hr
6 hour
Temperature (ºF) Pressure Precipitation (in)